FW5399 Weather Reports


Display with metric or nautical units.
time (UTC)temp
F
wind
direction
speed
MPH
gust
MPH
rain 1hr
in
rain 24hr
in
rain mn
in
humidity
%
barometer
mb
20260503192404 47 310 0.0 0.0 0.00 0.01 0.01 99 1035.1
20260503191904 47 310 0.0 0.0 0.00 0.01 0.01 99 1034.9
20260503191535 47 310 0.0 0.0 0.00 0.01 0.01 99 1034.8
20260503190411 47 310 0.0 1.0 0.00 0.01 0.01 99 1034.6
20260503185910 47 309 0.0 0.0 0.00 0.01 0.01 99 1034.6
20260503185404 47 310 0.0 0.0 0.00 0.01 0.01 99 1034.6
20260503184858 47 309 0.0 0.0 0.00 0.01 0.01 99 1034.6
20260503184353 47 310 0.0 0.0 0.00 0.01 0.01 99 1034.6
20260503184254 47 310 0.0 0.0 0.00 0.01 0.01 98 1034.6
20260503183340 47 310 0.0 0.0 0.00 0.01 0.01 98 1034.5
20260503182834 47 310 0.0 0.0 0.00 0.01 0.01 98 1034.5
20260503182328 47 309 0.0 0.0 0.00 0.01 0.01 98 1034.5
20260503181822 48 309 0.0 0.0 0.00 0.01 0.01 99 1034.4
20260503181733 48 309 0.0 1.0 0.00 0.01 0.01 99 1034.4
20260503180811 49 309 0.0 1.0 0.00 0.01 0.01 99 1034.3
20260503180305 49 344 0.0 1.0 0.00 0.01 0.01 99 1034.4
20260503175758 49 344 0.0 1.0 0.00 0.01 0.01 99 1034.3
20260503175252 49 351 0.0 1.0 0.00 0.01 0.01 99 1034.2
20260503174747 49 4 0.0 0.0 0.00 0.01 0.01 100 1034.1
20260503174240 48 354 0.0 0.0 0.00 0.01 0.01 99 1034.3
20260503173734 48 325 0.0 0.0 0.00 0.01 0.01 99 1034.2
20260503173228 48 325 0.0 0.0 0.00 0.01 0.01 99 1034.2
20260503172723 48 325 0.0 0.0 0.00 0.01 0.01 99 1034.2
20260503172605 49 325 0.0 0.0 0.00 0.01 0.01 99 1034.3
20260503171704 49 325 0.0 0.0 0.00 0.01 0.01 99 1034.3
20260503171159 49 325 0.0 1.0 0.00 0.01 0.01 100 1034.3
20260503170653 49 325 0.0 1.0 0.00 0.01 0.01 100 1034.4
20260503170147 49 325 0.0 2.0 0.00 0.01 0.01 100 1034.5
20260503150626 47 338 0.0 2.0 0.01 0.01 0.01 100 1035.1
20260503150126 47 329 0.0 0.0 0.01 0.01 0.01 100 1035.2
20260503140124 46 287 0.0 0.0 0.00 0.01 0.00 100 1035.9
20260503131033 42 308 0.0 0.0 0.00 0.01 0.00 100 1036.0
20260503130533 42 308 0.0 0.0 0.00 0.01 0.00 100 1036.1
20260503130416 41 308 0.0 0.0 0.00 0.01 0.00 99 1036.1
20260503110506 40 308 0.0 0.0 0.00 0.01 0.01 99 1035.1
20260503081201 42 308 0.0 0.0 0.00 0.01 0.01 97 1033.9
20260503081055 42 308 0.0 0.0 0.00 0.01 0.01 97 1033.8
20260503080150 42 308 0.0 0.0 0.00 0.01 0.01 97 1033.8
20260503072608 44 308 0.0 0.0 0.00 0.01 0.01 96 1033.8
20260503072108 44 308 0.0 0.0 0.00 0.01 0.01 96 1033.7
20260503071609 45 308 0.0 0.0 0.00 0.01 0.01 96 1033.6
20260503071519 45 308 0.0 0.0 0.00 0.01 0.01 96 1033.7
20260503070605 45 308 0.0 0.0 0.00 0.01 0.01 96 1033.5
20260503070104 45 308 0.0 0.0 0.00 0.01 0.01 96 1033.5
20260503055102 50 308 0.0 0.0 0.00 0.01 0.01 94 1033.2
20260503054600 50 308 0.0 0.0 0.00 0.01 0.01 94 1033.0
20260503054101 51 309 0.0 0.0 0.00 0.01 0.01 94 1033.0
20260503053601 51 309 0.0 0.0 0.00 0.01 0.01 93 1033.0
20260503053500 51 309 0.0 0.0 0.00 0.01 0.01 93 1033.0
20260503052601 52 308 0.0 0.0 0.00 0.01 0.01 93 1032.9
20260503052455 52 308 0.0 0.0 0.00 0.01 0.01 93 1032.8
20260503051603 53 308 0.0 0.0 0.00 0.01 0.01 92 1032.8
20260503051522 53 309 0.0 0.0 0.00 0.01 0.01 92 1032.7
20260503050559 54 309 0.0 0.0 0.00 0.01 0.01 91 1032.7
20260503050059 54 308 0.0 0.0 0.00 0.01 0.01 91 1032.7
20260503045558 55 309 0.0 0.0 0.00 0.01 0.01 90 1032.7
20260503045111 55 308 0.0 0.0 0.00 0.01 0.01 90 1032.8
20260503044559 56 309 0.0 0.0 0.00 0.01 0.01 89 1032.6
20260503044109 56 309 0.0 0.0 0.00 0.01 0.01 88 1032.7
20260503043556 56 308 0.0 0.0 0.00 0.01 0.01 87 1032.6
20260503043052 57 308 0.0 0.0 0.00 0.01 0.01 86 1032.7
20260503042544 57 309 0.0 0.0 0.00 0.01 0.01 85 1032.7
20260503042039 58 308 0.0 0.0 0.00 0.01 0.01 84 1032.7
20260503041532 58 308 0.0 0.0 0.00 0.01 0.01 83 1032.6
20260503041044 58 308 0.0 0.0 0.00 0.01 0.01 82 1032.7
20260503040924 59 309 0.0 0.0 0.00 0.01 0.01 81 1032.6
20260503040015 60 309 0.0 0.0 0.00 0.01 0.01 80 1032.7
20260503035508 60 309 0.0 0.0 0.00 0.01 0.01 78 1032.7
20260503035002 61 309 0.0 0.0 0.00 0.01 0.01 75 1032.7
20260503034456 63 309 0.0 0.0 0.00 0.01 0.01 73 1032.7
20260503033954 65 309 0.0 0.0 0.00 0.01 0.01 70 1032.6
20260503033444 67 309 0.0 0.0 0.00 0.01 0.01 68 1032.7
20260503032937 67 309 0.0 0.0 0.00 0.01 0.01 68 1032.7
20260503032432 67 309 0.0 0.0 0.00 0.01 0.01 69 1032.8
20260503031933 67 309 0.0 0.0 0.00 0.01 0.01 67 1032.8
20260503031831 67 309 0.0 0.0 0.00 0.01 0.01 68 1032.8
20260503030914 67 309 0.0 0.0 0.00 0.01 0.01 66 1032.8
20260503030408 66 302 0.0 0.0 0.00 0.01 0.01 69 1032.8
20260503025902 67 301 0.0 0.0 0.00 0.01 0.01 69 1032.8
20260503025356 67 301 0.0 0.0 0.00 0.01 0.01 69 1032.8
20260503024851 67 301 0.0 0.0 0.00 0.01 0.01 68 1032.8
20260503024344 68 301 0.0 0.0 0.00 0.01 0.01 66 1032.9
20260503023838 68 300 0.0 0.0 0.00 0.01 0.01 66 1032.8
20260503023332 68 301 0.0 0.0 0.00 0.01 0.01 65 1032.9
20260503022826 69 300 0.0 0.0 0.00 0.01 0.01 67 1032.9
20260503022721 69 301 0.0 0.0 0.00 0.01 0.01 64 1032.9
20260503021814 68 301 0.0 0.0 0.00 0.01 0.01 66 1033.1
20260503021308 69 300 0.0 0.0 0.00 0.01 0.01 66 1033.1
20260503020802 70 300 0.0 0.0 0.00 0.01 0.01 66 1033.2
20260503020256 70 300 0.0 0.0 0.00 0.01 0.01 66 1033.2
20260503015752 69 300 0.0 0.0 0.00 0.01 0.01 61 1033.3
20260503015245 68 328 0.0 0.0 0.00 0.01 0.01 67 1033.2
20260503014737 69 328 0.0 0.0 0.00 0.01 0.01 67 1033.4
20260503014232 69 326 0.0 0.0 0.00 0.01 0.01 65 1033.5
20260503013726 68 327 0.0 1.0 0.00 0.01 0.01 69 1033.4
20260503013222 68 327 0.0 1.0 0.00 0.01 0.01 68 1033.5
20260503012714 67 327 0.0 1.0 0.00 0.01 0.01 70 1033.6
20260503012207 67 327 0.0 0.0 0.00 0.01 0.01 68 1033.7
20260503011703 67 319 0.0 0.0 0.00 0.01 0.01 67 1033.8
20260503011534 67 298 0.0 1.0 0.00 0.01 0.01 67 1033.8
20260503010652 67 298 0.0 1.0 0.00 0.01 0.01 71 1033.8
20260503010145 67 231 0.0 1.0 0.00 0.01 0.01 69 1033.8
20260503005640 68 335 0.0 1.0 0.00 0.01 0.01 66 1033.8
20260503005140 68 334 0.0 1.0 0.00 0.01 0.01 67 1033.9
20260503004642 68 255 0.0 1.0 0.00 0.01 0.01 69 1033.9
20260503004141 67 334 0.0 1.0 0.00 0.01 0.01 70 1033.9
20260503003641 67 319 0.0 1.0 0.00 0.01 0.01 73 1034.1
20260503003605 66 320 0.0 2.0 0.00 0.01 0.01 72 1034.3
20260503002824 66 305 0.0 2.0 0.00 0.01 0.01 74 1034.4
20260503001636 65 324 0.0 2.0 0.00 0.01 0.01 73 1034.5
20260503001140 66 319 0.0 2.0 0.00 0.01 0.01 73 1034.5
20260503000848 65 273 0.0 2.0 0.00 0.01 0.01 72 1034.5
20260502235807 65 356 0.0 2.0 0.00 0.01 0.01 76 1034.5
20260502234632 64 329 0.0 3.0 0.00 0.01 0.01 74 1034.8
20260502234541 65 280 0.0 3.0 0.00 0.01 0.01 75 1034.8
20260502233628 64 267 0.0 2.0 0.00 0.01 0.01 74 1034.9
20260502233126 64 296 0.0 2.0 0.00 0.01 0.01 76 1034.9
20260502232627 64 325 0.0 2.0 0.00 0.01 0.01 74 1034.9
20260502232126 64 316 0.0 1.0 0.00 0.01 0.01 75 1035.1
20260502231627 63 343 0.0 1.0 0.00 0.01 0.01 77 1035.2
20260502231128 63 330 0.0 1.0 0.00 0.01 0.01 76 1035.4
20260502231032 63 306 0.0 1.0 0.00 0.01 0.01 77 1035.5
20260502230540 62 348 0.0 1.0 0.00 0.01 0.01 78 1035.4
20260502225627 62 274 0.0 1.0 0.00 0.01 0.01 78 1035.5
20260502225126 61 317 0.0 1.0 0.00 0.01 0.01 79 1035.5
20260502224629 61 275 0.0 2.0 0.00 0.01 0.01 80 1035.4
20260502224127 60 312 0.0 3.0 0.00 0.01 0.01 81 1035.4
20260502224026 60 315 0.0 5.0 0.00 0.01 0.01 80 1035.5
20260502223125 59 6 0.0 5.0 0.00 0.01 0.01 80 1035.5
20260502222626 59 322 0.0 2.0 0.00 0.01 0.01 80 1035.5
20260502222126 59 307 0.0 3.0 0.00 0.01 0.01 82 1035.6
20260502221624 58 310 0.0 3.0 0.00 0.01 0.01 81 1035.6
20260502221526 58 293 0.0 2.0 0.00 0.01 0.01 83 1035.6
20260502220628 57 348 0.0 2.0 0.00 0.01 0.01 83 1035.6
20260502220610 57 310 0.0 3.0 0.00 0.01 0.01 83 1035.7
20260502220025 56 318 0.0 3.0 0.00 0.01 0.01 83 1035.5
20260502215304 56 324 0.0 2.0 0.00 0.01 0.01 84 1035.5
20260502214058 55 286 0.0 2.0 0.00 0.01 0.01 88 1035.7
20260502214004 54 287 0.0 3.0 0.00 0.01 0.01 88 1035.7
20260502213454 54 259 1.0 4.0 0.00 0.01 0.01 89 1035.8
20260502212540 53 278 1.0 4.0 0.00 0.01 0.01 88 1035.9
20260502212034 53 345 0.0 3.0 0.00 0.01 0.01 88 1036.1
20260502211925 53 262 0.0 4.0 0.00 0.01 0.01 90 1036.2
20260502211022 52 283 0.0 4.0 0.00 0.01 0.01 90 1036.2
20260502210517 51 287 0.0 3.0 0.00 0.01 0.01 91 1036.2
20260502210010 51 289 0.0 3.0 0.00 0.01 0.01 90 1036.1
20260502205503 51 287 0.0 3.0 0.00 0.01 0.01 91 1036.2
20260502204958 50 295 0.0 3.0 0.00 0.01 0.01 91 1036.2
20260502204452 50 300 0.0 3.0 0.00 0.01 0.01 94 1036.3
20260502203948 50 310 0.0 1.0 0.00 0.01 0.01 95 1036.1
20260502203440 49 311 0.0 1.0 0.00 0.01 0.01 96 1036.1
20260502202934 49 310 0.0 1.0 0.00 0.01 0.01 97 1036.1
20260502202428 48 315 0.0 1.0 0.00 0.01 0.01 98 1036.1
20260502201925 48 307 0.0 1.0 0.00 0.01 0.01 99 1036.1
20260502201417 47 308 0.0 1.0 0.00 0.01 0.01 99 1036.1
20260502200910 47 341 0.0 3.0 0.00 0.01 0.01 100 1036.1
20260502200405 46 319 0.0 3.0 0.00 0.01 0.01 100 1036.1
20260502195858 46 286 0.0 1.0 0.00 0.01 0.01 100 1036.0
20260502195353 45 296 0.0 0.0 0.00 0.01 0.01 100 1036.0
20260502194847 45 296 0.0 0.0 0.00 0.01 0.01 100 1035.9
20260502194725 44 296 0.0 1.0 0.00 0.01 0.01 100 1035.9
20260502193834 44 296 0.0 1.0 0.00 0.01 0.01 100 1035.9
20260502193328 43 296 0.0 1.0 0.00 0.01 0.01 100 1035.9
20260502192822 42 296 0.0 1.0 0.00 0.01 0.01 99 1035.7